STARLINK-37456, 69300

Orbit data source: Space-Track

STARLINK-37456, 69300 is a payload satellite owned by SpaceX/Seattle (US) in SSO that was launched on Sat, 30 May 2026 UTC via an FALCON 9 launch vehicle from the Air Force Western Test Range (AFWTR). Payload-class satellites include a variety of spacecraft equipped with specific instruments for various scientific and technological missions. These include communications satellites like Starlink; space stations such as the ISS; scientific satellites like the Hubble; Earth observation satellites from companies like Planet Labs, Umbra, and HawkEye 360; GPS; miniature CubeSats for education and research; and military/defense satellites.

Loading next visibility...
Identifier
69300, 2026-119E
Orbit
SSO
Country
Flag of USUS
Related business
Manufacturer
SpaceX/Seattle
Mission
Operational Commercial Communications
Bus & Motor
STARLINK V2MO, Unknown motor
Mass
575 kg wet, ~530 kg dry
Launch date (UTC)
2026-05-30 (4 months ago)
Launch vehicle
FALCON 9
Launch site
Air Force Western Test Range (AFWTR)
Object type
Payload
Rocket body
Debris
Shape & HBR
Box + 1 Pan, 17.7 m
Radar Cross Section
41.120 m², Large (>1 m²)

Expand to show TLE details & history
Last TLE update: 18 hours ago

TLE from 18 hours ago
0 STARLINK-37456
1 69300U 26119E   26263.51967298  .00011255  00000-0  35037-3 0  9998
2 69300  97.2807 288.2112 0000813 110.0484 250.0847 15.33449898 18668
Epoch: 2026-09-20T12:28Z
TLE epoch observation values (Epoch: 2026-09-20T12:28:19.745Z)
Latitude
0.00004°
Longitude
101.71624°
Altitude
468.83 km
Speed
7.632 km/s
True Right ascension
19h 12m 50s
True Declination
0° 00' 00"
Sunlit
Object was in daylight at epoch
Visualization orbit readout
Latitude
Unknown
Longitude
Unknown
Altitude
Unknown
Speed
Unknown
Apparent Right ascension
Unknown
Apparent Declination
Unknown
Sunlit
N/A
Visualization observer readout
Local Sidereal Time
23:11:57
Azimuth
Unknown
Elevation
Unknown
Doppler factor
Unknown
Orbital elements
Apogee altitude
463.027 km
Perigee altitude
461.915 km
Semi-major axis
6,840.608 km
Eccentricity
0.00008
Inclination
97.2807°
RAAN
288.2112°
Arg. of periapsis
110.0484°
True anomaly
250.07594°
Mean anomaly
250.0847°
Eccentric anomaly
250.08032°
Mean motion
3.8362 °/min
Orbital period
93.84 mins
BSTAR
0.00035037
Loading maneuver chart data...
Computing Atmospheric mass density...
Loading historical data...
Loading historical data...
Loading historical data...
Loading historical data...
Loading historical data...
Loading historical data...
Loading historical data...

Documentation

Showing up to 5 results
|